This demonstration page uses our WeatherBlox Daily Observations layout. Learn more.

Left ArrowRight Arrow

47.50024, -111.30081

Hourly Observations for April 27, 2016

Temp ( °F °C ) Dew Point ( °F °C ) Humidity (%) Winds ( mph kmh ) Pressure ( in mb ) Visibility ( mi km ) Precip ( " mm )
12:14 am 00:14 Cloudy 37 3 36 2 93 93 ESE 3 6 30.03 1017 10 16 0.00 0.00
12:40 am 00:40 Cloudy 37 3 36 2 93 93 ESE 5 7 30.03 1017 10 16 0.00 0.00
12:49 am 00:49 Cloudy 37 3 36 2 93 93 ESE 5 7 30.03 1017 10 16 0.00 0.00
12:53 am 00:53 Cloudy 37 2.8 35 1.7 93 93 ESE 3 6 30.07 1018 10 16 0.00 0.00
1:39 am 01:39 Cloudy with Light Rain 37 2.8 35 1.7 93 93 E 6 9 30.03 1017 9 14 0.01 0.25
1:53 am 01:53 Cloudy with Light Rain 37 2.8 34 1.1 89 89 ESE 7 11 30.06 1018 8 13 0.01 0.25
2:35 am 02:35 Cloudy with Light Rain 36 2.2 34 1.1 93 93 E 6 9 30.03 1017 8 13 0.00 0.03
2:53 am 02:53 Cloudy with Light Rain 36 2.2 34 1.1 93 93 E 5 7 30.07 1018 10 16 0.01 0.25
2:58 am 02:58 Cloudy 36 2 34 1 93 93 Calm 30.03 1017 10 16 0.00 0.00
3:06 am 03:06 Cloudy 36 2 36 2 100 100 Calm 30.03 1017 10 16 0.00 0.00
3:14 am 03:14 Cloudy 36 2 36 2 100 100 Calm 30.03 1017 10 16 0.00 0.00
3:53 am 03:53 Cloudy 36 2.2 34 1.1 93 93 Calm 30.06 1018 10 16 0.00 0.03
4:25 am 04:25 Cloudy 36 2.2 34 1.1 93 93 NNE 5 7 30.06 1018 10 16 0.00 0.00
4:35 am 04:35 Cloudy 36 2.2 34 1.1 93 93 NNE 6 9 30.03 1017 10 16 0.00 0.00
4:41 am 04:41 Cloudy 36 2.2 35 1.7 97 97 N 7 11 30.03 1017 10 16 0.00 0.00
4:53 am 04:53 Cloudy 36 2.2 34 1.1 93 93 NNE 10 17 30.06 1018 7 11 0.00 0.00
5:26 am 05:26 Cloudy 36 2 34 1 93 93 NE 9 15 30.03 1017 10 16 0.00 0.00
5:53 am 05:53 Cloudy with Light Rain 35 1.7 33 0.6 93 93 NE 9 15 30.07 1018 10 16 0.00 0.03
6:12 am 06:12 Cloudy with Light Rain 36 2 34 1 93 93 NNE 9 15 30.09 1019 10 16 0.00 0.00
6:25 am 06:25 Cloudy with Light Rain/Snow 35 1.7 33 0.6 93 93 NE 7 11 30.09 1019 10 16 0.00 0.03
6:44 am 06:44 Cloudy with Light Rain 34 1 34 1 100 100 NE 7 11 30.06 1018 7 11 0.00 0.00
6:53 am 06:53 Cloudy 34 1.1 33 0.6 97 97 NE 5 7 30.06 1018 8 13 0.00 0.03
7:16 am 07:16 Cloudy 36 2 34 1 93 93 NNE 5 7 30.03 1017 9 14 0.00 0.00
7:29 am 07:29 Cloudy 35 1.7 33 0.6 93 93 N 5 7 30.06 1018 8 13 0.00 0.00
7:53 am 07:53 Cloudy 35 1.7 33 0.6 93 93 NNE 10 17 30.07 1018 10 16 0.00 0.00
8:53 am 08:53 Cloudy 36 2.2 33 0.6 89 89 NNE 8 13 30.08 1019 10 16 0.00 0.00
9:53 am 09:53 Cloudy 36 2.2 34 1.1 93 93 NE 8 13 30.09 1019 10 16 0.00 0.00
10:53 am 10:53 Cloudy 37 2.8 34 1.1 89 89 NE 13 20 30.09 1019 10 16 0.00 0.03
11:06 am 11:06 Cloudy with Light Rain 36 2 34 1 93 93 ENE 13 20 30.12 1020 9 14 0.00 0.00
11:22 am 11:22 Cloudy with Light Snow 36 2 34 1 93 93 ENE 10 17 30.12 1020 3 5 0.00 0.00
11:33 am 11:33 Cloudy with Light Snow 36 2.2 33 0.6 89 89 ENE 10 17 30.12 1020 4 6 0.00 0.03
11:42 am 11:42 Cloudy with Light Rain 36 2 34 1 93 93 E 8 13 30.12 1020 6 10 0.00 0.00
11:53 am 11:53 Cloudy with Light Rain 37 2.8 34 1.1 89 89 ENE 7 11 30.11 1020 8 13 0.01 0.25
12:04 pm 12:04 Cloudy 37 3 34 1 87 87 ENE 7 11 30.09 1019 10 16 0.00 0.00
12:22 pm 12:22 Cloudy with Light Rain 37 3 34 1 87 87 ENE 8 13 30.09 1019 4 6 0.00 0.00
12:28 pm 12:28 Cloudy with Light Rain 36 2 32 0 87 87 ENE 7 11 30.12 1020 3 4 0.00 0.00
12:35 pm 12:35 Cloudy with Light Rain 37 2.8 34 1.1 89 89 ENE 7 11 30.09 1019 5 8 0.01 0.25
12:53 pm 12:53 Cloudy with Light Rain 38 3.3 35 1.7 89 89 ENE 6 9 30.11 1020 10 16 0.02 0.51
1:30 pm 13:30 Cloudy with Light Rain 37 3 34 1 87 87 NNE 6 9 30.09 1019 8 13 0.00 0.00
1:53 pm 13:53 Cloudy with Light Snow 36 2.2 33 0.6 89 89 N 9 15 30.12 1020 3 5 0.01 0.25
1:56 pm 13:56 Cloudy with Light Snow 36 2 32 0 87 87 NNE 7 11 30.12 1020 3 4 0.00 0.00
2:13 pm 14:13 Cloudy with Light Rain 37 2.8 35 1.7 93 93 NNE 6 9 30.09 1019 7 11 0.02 0.51
2:32 pm 14:32 Cloudy with Rain 36 2 34 1 93 93 ENE 7 11 30.12 1020 3 5 0.00 0.00
2:53 pm 14:53 Cloudy with Light Rain 36 2.2 33 0.6 89 89 NNE 12 19 30.13 1020 5 8 0.04 1.02
3:06 pm 15:06 Cloudy with Light Rain 39 4 36 2 87 87 NNE 8 13 30.09 1019 9 14 0.00 0.00
3:22 pm 15:22 Cloudy with Light Rain 37 3 36 2 93 93 NE 10 17 30.09 1019 10 16 0.00 0.00
3:53 pm 15:53 Cloudy with Light Rain 39 3.9 35 1.7 86 86 NNE 10 17 30.11 1020 10 16 0.01 0.25
4:15 pm 16:15 Cloudy with Light Rain 38 3.3 34 1.1 86 86 NE 13 20 30.09 1019 8 13 0.00 0.03
4:21 pm 16:21 Cloudy with Light Rain 38 3.3 35 1.7 89 89 NE 12 19 30.09 1019 7 11 0.00 0.03
4:53 pm 16:53 Cloudy with Light Rain 38 3.3 34 1.1 86 86 NE 9 15 30.12 1020 10 16 0.00 0.03
5:04 pm 17:04 Cloudy with Light Rain 37 3 36 2 93 93 NE 10 17 30.09 1019 10 16 0.00 0.00
5:17 pm 17:17 Cloudy 38 3.3 34 1.1 86 86 NNE 14 22 30.09 1019 10 16 0.00 0.03
5:28 pm 17:28 Cloudy with Light Rain 37 3 34 1 87 87 NE 13 20 30.09 1019 10 16 0.00 0.00
5:35 pm 17:35 Cloudy 38 3.3 34 1.1 86 86 NE 10 17 30.09 1019 10 16 0.00 0.03
5:53 pm 17:53 Cloudy 38 3.3 34 1.1 86 86 NNE 10 17 30.12 1020 10 16 0.00 0.03
6:19 pm 18:19 Cloudy 38 3.3 34 1.1 86 86 NNE 10 17 30.09 1019 10 16 0.00 0.00
6:50 pm 18:50 Cloudy 37 3 34 1 87 87 NE 9 15 30.09 1019 10 16 0.00 0.00
6:53 pm 18:53 Cloudy 37 2.8 34 1.1 89 89 NNE 10 17 30.12 1020 10 16 0.00 0.03
7:00 pm 19:00 Cloudy with Light Rain 37 3 34 1 87 87 NNE 9 15 30.09 1019 10 16 0.00 0.00
7:08 pm 19:08 Cloudy with Light Rain 37 3 34 1 87 87 NE 9 15 30.09 1019 10 16 0.00 0.00
7:44 pm 19:44 Cloudy with Light Rain 36 2 34 1 93 93 NE 13 20 30.12 1020 6 10 0.00 0.00
7:53 pm 19:53 Cloudy with Light Rain 36 2.2 33 0.6 89 89 NNE 10 17 30.13 1020 6 10 0.01 0.25
8:03 pm 20:03 Cloudy with Light Rain 36 2 34 1 93 93 undefined N/A 30.12 1020 4 6 0.00 0.00
8:11 pm 20:11 Cloudy with Light Rain 35 1.7 33 0.6 93 93 NNE 13 20 30.12 1020 3 5 0.00 0.03
8:53 pm 20:53 Cloudy with Light Rain 35 1.7 34 1.1 96 96 NE 10 17 30.14 1021 6 10 0.01 0.25
9:34 pm 21:34 Cloudy with Light Rain 36 2 34 1 93 93 NE 13 20 30.15 1021 5 8 0.00 0.00
9:53 pm 21:53 Cloudy with Light Rain 35 1.7 33 0.6 93 93 NE 12 19 30.15 1021 7 11 0.03 0.76
10:07 pm 22:07 Cloudy with Light Rain 35 1.7 34 1.1 96 96 NE 12 19 30.15 1021 7 11 0.00 0.03
10:20 pm 22:20 Cloudy with Light Rain 36 2 34 1 93 93 NE 13 20 30.15 1021 6 10 0.00 0.00
10:42 pm 22:42 Cloudy with Light Rain 34 1 34 1 100 100 NE 12 19 30.15 1021 7 11 0.00 0.00
10:53 pm 22:53 Cloudy with Light Rain 34 1.1 33 0.6 97 97 NE 10 17 30.16 1021 7 11 0.02 0.51
11:16 pm 23:16 Cloudy with Light Wintry Mix 34 1 32 0 93 93 NE 10 17 30.15 1021 8 13 0.00 0.00
11:53 pm 23:53 Cloudy with Light Rain 34 1.1 33 0.6 97 97 NE 10 17 30.15 1021 8 13 0.01 0.25

Powered by AerisWeather